Torna al catalogo

STARLINK-1153

AttivoComunicazioniVLEO
NORAD 45080·PAYLOAD·🇺🇸 United States

Lanciato Jan 29, 2020 da Cape Canaveral Space Force Station

Loading…

Prossimi Passaggi (prossime 24 ore)

TLE

AggiornatoSource: CelesTrak SupGP

Epoca: Sep 14, 2026, 21:04 UTC

1 45080C 20006AN  26257.87826389  .00063197  00000+0  12560-2 0  2576
2 45080  53.1529  88.6985 0003134 204.2741 231.2706 15.46338744    16

Traccia STARLINK-1153 in tempo reale con AllMySat

Download on the App Store